Location: Finkenbach
(49.5340°N, 8.9188°E)
Time: 05:01:43
(UTC+00:00)

SL-8 R/B - Pass Details

Date: 17 June 2025
Orbit: 648 x 658 km, 48.4° (Epoch: 12 July)

Event Time Altitude Azimuth Distance (km) Brightness Sun altitude
Rises 20:13:37 0° 280° (W) 2,984 8.0 -5.6°
Reaches altitude 10° 20:16:00 10° 277° (W) 2,070 7.1 -5.8°
Maximum altitude 20:20:40 57° 199° (SSW) 774 3.9 -6.3°
Drops below altitude 10° 20:25:20 10° 121° (ESE) 2,060 5.6 -6.8°
Enters shadow 20:25:58 - 120° (ESE) 2,300 5.9 -6.9°
